Stündliche Wetter Kyzyrbak

Heute, 16 Mai, Sonntag

Zeit Temperatur Niederschläge Wind Luftdruck Luftfeuchtigkeit
00:00 +19°C° 0 mm 2 m/S 742 mmHg 61%
01:00 +18°C° 0 mm 2 m/S 742 mmHg 63%
02:00 +18°C° 0 mm 2 m/S 742 mmHg 64%
03:00 +17°C° 0 mm 2 m/S 743 mmHg 65%
04:00 +17°C° 0 mm 2 m/S 743 mmHg 66%
05:00 +19°C° 0 mm 2 m/S 743 mmHg 62%
06:00 +20°C° 0 mm 2 m/S 743 mmHg 58%
07:00 +23°C° 0 mm 2 m/S 743 mmHg 54%
08:00 +25°C° 0 mm 2 m/S 743 mmHg 47%
09:00 +27°C° 0 mm 3 m/S 743 mmHg 40%
10:00 +29°C° 0 mm 4 m/S 743 mmHg 33%
11:00 +30°C° 0 mm 4 m/S 743 mmHg 30%
12:00 +32°C° 0 mm 4 m/S 743 mmHg 27%
13:00 +32°C° 0 mm 4 m/S 743 mmHg 24%
14:00 +32°C° 0 mm 5 m/S 743 mmHg 25%
15:00 +32°C° 0 mm 5 m/S 742 mmHg 26%
16:00 +32°C° 0 mm 5 m/S 742 mmHg 27%
17:00 +29°C° 0 mm 4 m/S 742 mmHg 33%
18:00 +27°C° 0 mm 3 m/S 742 mmHg 39%
19:00 +25°C° 0 mm 2 m/S 742 mmHg 45%
20:00 +24°C° 0 mm 2 m/S 742 mmHg 47%
21:00 +21°C° 0 mm 2 m/S 742 mmHg 49%
22:00 +20°C° 0 mm 2 m/S 741 mmHg 51%
23:00 +19°C° 0 mm 2 m/S 741 mmHg 53%

Morgen, 17 Mai, Montag

Zeit Temperatur Niederschläge Wind Luftdruck Luftfeuchtigkeit
00:00 +19°C° 0 mm 2 m/S 741 mmHg 54%
01:00 +18°C° 0 mm 2 m/S 741 mmHg 56%
02:00 +18°C° 0 mm 2 m/S 741 mmHg 57%
03:00 +18°C° 0 mm 2 m/S 741 mmHg 58%
04:00 +17°C° 0 mm 2 m/S 742 mmHg 60%
05:00 +19°C° 0 mm 2 m/S 742 mmHg 57%
06:00 +21°C° 0 mm 3 m/S 742 mmHg 54%
07:00 +22°C° 0 mm 3 m/S 742 mmHg 52%
08:00 +25°C° 0 mm 3 m/S 742 mmHg 46%
09:00 +27°C° 0 mm 4 m/S 742 mmHg 41%
10:00 +29°C° 0 mm 5 m/S 742 mmHg 35%
11:00 +29°C° 0 mm 5 m/S 742 mmHg 33%
12:00 +30°C° 0 mm 5 m/S 742 mmHg 31%
13:00 +32°C° 0 mm 5 m/S 742 mmHg 29%
14:00 +30°C° 0 mm 5 m/S 741 mmHg 30%
15:00 +30°C° 0 mm 5 m/S 741 mmHg 31%
16:00 +30°C° 0 mm 5 m/S 741 mmHg 32%
17:00 +29°C° 0 mm 4 m/S 741 mmHg 38%
18:00 +27°C° 0 mm 3 m/S 740 mmHg 44%
19:00 +26°C° 0 mm 2 m/S 740 mmHg 49%
20:00 +24°C° 0 mm 3 m/S 740 mmHg 52%
21:00 +22°C° 0 mm 4 m/S 741 mmHg 55%
22:00 +21°C° 0 mm 5 m/S 741 mmHg 58%
23:00 +19°C° 0 mm 4 m/S 740 mmHg 62%

übermorgen, 18 Mai, Dienstag

Zeit Temperatur Niederschläge Wind Luftdruck Luftfeuchtigkeit
00:00 +18°C° 0 mm 3 m/S 740 mmHg 66%
01:00 +17°C° 0 mm 2 m/S 740 mmHg 70%
02:00 +16°C° 0.4 mm 2 m/S 740 mmHg 73%
03:00 +16°C° 0.4 mm 2 m/S 740 mmHg 76%
04:00 +15°C° 0.4 mm 1 m/S 740 mmHg 79%
05:00 +18°C° 0.3 mm 1 m/S 740 mmHg 77%
06:00 +19°C° 0.3 mm 1 m/S 740 mmHg 74%
07:00 +20°C° 0.3 mm 1 m/S 741 mmHg 71%
08:00 +21°C° 0 mm 2 m/S 740 mmHg 65%
09:00 +24°C° 0 mm 2 m/S 740 mmHg 58%
10:00 +25°C° 0 mm 3 m/S 740 mmHg 52%
11:00 +26°C° 0 mm 3 m/S 740 mmHg 46%
12:00 +27°C° 0 mm 4 m/S 740 mmHg 41%
13:00 +28°C° 0 mm 4 m/S 740 mmHg 35%
14:00 +28°C° 0 mm 5 m/S 740 mmHg 36%
15:00 +27°C° 0 mm 5 m/S 740 mmHg 37%
16:00 +27°C° 0 mm 5 m/S 740 mmHg 38%
17:00 +25°C° 0 mm 4 m/S 740 mmHg 45%
18:00 +23°C° 0 mm 4 m/S 740 mmHg 52%
19:00 +21°C° 0 mm 3 m/S 740 mmHg 59%
20:00 +19°C° 0 mm 3 m/S 740 mmHg 62%
21:00 +18°C° 0 mm 3 m/S 741 mmHg 65%
22:00 +16°C° 0 mm 3 m/S 741 mmHg 68%
23:00 +14°C° 0 mm 3 m/S 741 mmHg 72%

19 Mai, Mittwoch

Zeit Temperatur Niederschläge Wind Luftdruck Luftfeuchtigkeit
00:00 +14°C° 0 mm 3 m/S 742 mmHg 75%
01:00 +13°C° 0 mm 4 m/S 742 mmHg 78%
02:00 +12°C° 0 mm 4 m/S 742 mmHg 82%
03:00 +11°C° 0 mm 3 m/S 742 mmHg 85%
04:00 +10°C° 0 mm 3 m/S 742 mmHg 88%
05:00 +11°C° 0 mm 4 m/S 743 mmHg 83%
06:00 +13°C° 0 mm 4 m/S 743 mmHg 77%
07:00 +14°C° 0 mm 4 m/S 743 mmHg 72%
08:00 +15°C° 0 mm 4 m/S 743 mmHg 65%
09:00 +18°C° 0 mm 4 m/S 743 mmHg 57%
10:00 +19°C° 0 mm 5 m/S 743 mmHg 50%
11:00 +20°C° 0 mm 4 m/S 743 mmHg 45%
12:00 +22°C° 0 mm 4 m/S 743 mmHg 40%
13:00 +23°C° 0 mm 4 m/S 743 mmHg 36%
14:00 +23°C° 0 mm 4 m/S 743 mmHg 34%
15:00 +25°C° 0 mm 4 m/S 743 mmHg 33%
16:00 +25°C° 0 mm 4 m/S 743 mmHg 32%
17:00 +24°C° 0 mm 3 m/S 743 mmHg 38%
18:00 +21°C° 0 mm 3 m/S 743 mmHg 45%
19:00 +20°C° 0 mm 3 m/S 743 mmHg 52%
20:00 +18°C° 0 mm 2 m/S 743 mmHg 54%
21:00 +16°C° 0 mm 2 m/S 743 mmHg 57%
22:00 +15°C° 0 mm 1 m/S 743 mmHg 60%
23:00 +14°C° 0 mm 1 m/S 743 mmHg 62%

20 Mai, Donnerstag

Zeit Temperatur Niederschläge Wind Luftdruck Luftfeuchtigkeit
00:00 +13°C° 0 mm 1 m/S 743 mmHg 64%
01:00 +13°C° 0 mm 1 m/S 743 mmHg 66%
02:00 +12°C° 0 mm 1 m/S 744 mmHg 68%
03:00 +12°C° 0 mm 1 m/S 744 mmHg 70%
04:00 +11°C° 0 mm 1 m/S 744 mmHg 72%
05:00 +13°C° 0 mm 1 m/S 744 mmHg 66%
06:00 +15°C° 0 mm 1 m/S 745 mmHg 61%
07:00 +16°C° 0 mm 1 m/S 745 mmHg 56%
08:00 +19°C° 0 mm 1 m/S 745 mmHg 50%
09:00 +21°C° 0 mm 1 m/S 745 mmHg 44%
10:00 +23°C° 0 mm 1 m/S 745 mmHg 39%
11:00 +24°C° 0 mm 1 m/S 744 mmHg 36%
12:00 +25°C° 0 mm 1 m/S 744 mmHg 33%
13:00 +26°C° 0 mm 1 m/S 744 mmHg 29%
14:00 +27°C° 0 mm 1 m/S 743 mmHg 29%
15:00 +27°C° 0 mm 1 m/S 743 mmHg 28%
16:00 +27°C° 0 mm 1 m/S 743 mmHg 27%
17:00 +26°C° 0 mm 1 m/S 743 mmHg 33%
18:00 +25°C° 0 mm 1 m/S 742 mmHg 39%
19:00 +21°C° 0 mm 0 m/S 742 mmHg 44%
20:00 +21°C° 0 mm 1 m/S 742 mmHg 49%
21:00 +19°C° 0 mm 1 m/S 743 mmHg 54%
22:00 +16°C° 0 mm 2 m/S 743 mmHg 59%
23:00 +16°C° 0 mm 2 m/S 743 mmHg 61%

21 Mai, Freitag

Zeit Temperatur Niederschläge Wind Luftdruck Luftfeuchtigkeit
00:00 +15°C° 0 mm 2 m/S 743 mmHg 64%
01:00 +15°C° 0 mm 2 m/S 743 mmHg 66%
02:00 +15°C° 0 mm 2 m/S 743 mmHg 66%
03:00 +15°C° 0 mm 2 m/S 743 mmHg 66%
04:00 +14°C° 0 mm 2 m/S 743 mmHg 65%
05:00 +16°C° 0 mm 2 m/S 743 mmHg 61%
06:00 +18°C° 0 mm 2 m/S 744 mmHg 57%
07:00 +19°C° 0 mm 2 m/S 744 mmHg 53%
08:00 +21°C° 0 mm 2 m/S 744 mmHg 47%
09:00 +24°C° 0 mm 3 m/S 744 mmHg 41%
10:00 +25°C° 0 mm 4 m/S 744 mmHg 35%
11:00 +26°C° 0 mm 4 m/S 744 mmHg 34%
12:00 +27°C° 0 mm 4 m/S 744 mmHg 33%
13:00 +27°C° 0 mm 4 m/S 744 mmHg 31%
14:00 +27°C° 0 mm 5 m/S 744 mmHg 33%
15:00 +27°C° 0 mm 5 m/S 744 mmHg 34%
16:00 +27°C° 0 mm 5 m/S 743 mmHg 36%
17:00 +26°C° 0 mm 4 m/S 744 mmHg 42%
18:00 +24°C° 0 mm 3 m/S 744 mmHg 49%
19:00 +23°C° 0 mm 2 m/S 744 mmHg 55%
20:00 +20°C° 0 mm 2 m/S 744 mmHg 58%
21:00 +19°C° 0 mm 2 m/S 744 mmHg 61%
22:00 +18°C° 0 mm 2 m/S 744 mmHg 64%
23:00 +17°C° 0 mm 2 m/S 744 mmHg 66%
Mehr zeigen

Wir brauchen deine Erlaubnis

Meteoprog und unser Service Anbieter werden persönliche Daten aufbewahren, so wie Cookies, Geräte Bezeichnung oder ähnliche Technologien von deinem Gerät und Prozess, so wie Persönliche Daten Inhalte und Werbungen, genauso wie social Media und den Verkehr zu analysieren.

  • Aufbewahrung und/oder Zugang zu deiner Geräte Informationen.

    Cookies, Geräte Bezeichnung oder andere Informationen, können aufbewahrt oder Zugang zu deinem Gerät erhalten, für den Grund, der oben angegeben wird.

  • Personalisierte Werbung und Inhalte, Messungen, Einblick in das Publikum und Produkt Entwicklung.

    Werbungen und Inhalte können personalisiert werden, basierend auf ein Profil. Mehr Daten können besser personalisierte Werbungen und Inhalte hinzufügen. Werbung und Inhalte können gezeigt und gemessen werden. Einblicke über das Publikum, welche die Werbung gesehen haben und den Inhalt, können abgeleitet werden. So wie Daten können genutzt werden, um es zu verbessern oder die Benutzer Erfahrung zu verbessern das System und die Software.

Wenn du “Ich stimme zu” klickst, erlaubst du uns, die Cookies zu benutzen die Geräte Bezeichnung, den Web oder ähnliche Technologien zu benutzen. Deine Settings, können in deinem Gerät bei deinem Browser geändert werden.

Für den bestimmten Zweck, berechtigten Interessen beruhen darauf, mehr als auf den Inhalt. Du kannst mehr darüber in unseren Privaten und Cookie Politik lesen.